Content
SEND FEEDBACK

Daily
Averages
Monthly
Summary
United States of America

RAHWAY, NEW JERSEY


Home > North America > United States > New Jersey
Elevation: 20 feet     Latitude: 40 36N     Longitude: 074 16W

WEATHER
 
SELECT A DAY
Number of Records: 189,864;   Date Range: 1/1/95 - 9/16/14
 
SHARE

PRINT THIS DATA

[ ← Previous Day ]
WEATHER ALMANAC - JUNE 12, 2013
[ Next Day → ]
[ °C ]   °F
Weather ElementAverageHighLow
Temperature73.2 °F79 °F (1:51 pm)68 °F (4:51 am)
Dewpoint53.3 °F60.1 °F (1:51 am)51.1 °F (7:51 am)
Humidity51 %73 % (4:51 am)38 % (1:51 pm)
Barometer29.79 in29.85 in (8:51 pm)29.72 in (1:51 am)
Wind Speed13.5 mph24.2 mph (1:51 pm)
Wind Gust31.1 mph (7:51 am)
Weather ElementAverage
Visibility10 mi
Wind DirectionWNW (286.1 °)

Weather ElementTotal
Precipitation---
Cooling Degree Days8.5 (Base 65)
Growing Degree Days23.5 (Base 50)
Averaged from 23 records on June 12, 2013
WEATHER CONDITIONS BREAKOUT
WIND DIRECTION BREAKOUT
WEATHER BY HOUR - JUNE 12, 2013
[ °C ]   °F
Local TimeTemperatureDewpointHumidityBarometerVisibilityWind DirectionWind SpeedGust SpeedPrecipitationEventsConditions
1:51 AM71.1 °F60.1 °F68 %29.72 in10.0 miWSW (250°)10.4 mphMostly Cloudy
2:51 AM70.0 °F60.1 °F71 %29.72 in10.0 miWest (260°)12.7 mphMostly Cloudy
3:51 AM69.1 °F59.0 °F70 %29.72 in10.0 miWest (270°)11.5 mphMostly Cloudy
4:51 AM68.0 °F59.0 °F73 %29.74 in10.0 miWest (270°)8.1 mphPartly Cloudy
5:51 AM68.0 °F57.0 °F68 %29.76 in10.0 miNW (320°)9.2 mphScattered Clouds
6:51 AM68.0 °F52.0 °F56 %29.78 in10.0 miNW (320°)18.4 mphScattered Clouds
7:51 AM68.0 °F51.1 °F55 %29.79 in10.0 miWNW (300°)19.6 mph31.1 mphMostly Cloudy
8:51 AM68.0 °F51.1 °F55 %29.80 in10.0 miNW (310°)18.4 mph27.6 mphMostly Cloudy
9:51 AM72.0 °F51.1 °F48 %29.79 in10.0 miWNW (300°)19.6 mph27.6 mphScattered Clouds
10:51 AM73.0 °F52.0 °F48 %29.80 in10.0 miNW (320°)13.8 mph23.0 mphScattered Clouds
11:51 AM75.9 °F53.1 °F45 %29.80 in10.0 miNW (310°)13.8 mph26.5 mphScattered Clouds
12:51 PM78.1 °F52.0 °F40 %29.80 in10.0 miNW (310°)19.6 mph28.8 mphScattered Clouds
1:51 PM79.0 °F51.1 °F38 %29.80 in10.0 miNW (320°)24.2 mph31.1 mphScattered Clouds
2:51 PM79.0 °F52.0 °F39 %29.81 in10.0 miNNW (330°)17.3 mph28.8 mphScattered Clouds
3:51 PM79.0 °F53.1 °F40 %29.80 in10.0 miNW (320°)16.1 mph28.8 mphScattered Clouds
4:51 PM79.0 °F52.0 °F39 %29.80 in10.0 miWest (280°)13.8 mph23.0 mphScattered Clouds
5:51 PM78.1 °F51.1 °F39 %29.81 in10.0 miNorth (350°)15.0 mph26.5 mphScattered Clouds
6:51 PM77.0 °F51.1 °F40 %29.81 in10.0 miNNW (340°)12.7 mph23.0 mphScattered Clouds
7:51 PM75.9 °F51.1 °F42 %29.83 in10.0 miNNW (340°)13.8 mphScattered Clouds
8:51 PM73.9 °F51.1 °F45 %29.85 in10.0 miNNW (330°)9.2 mphMostly Cloudy
9:51 PM71.1 °F52.0 °F51 %29.85 in10.0 miNorth (360°)5.8 mphScattered Clouds
10:51 PM71.1 °F52.0 °F51 %29.84 in10.0 miNNE (30°)3.5 mphScattered Clouds
11:51 PM71.1 °F52.0 °F51 %29.83 in10.0 miNE (40°)3.5 mphMostly Cloudy
Hourly data recorded from KEWR, located miles away from Rahway, New Jersey







STORIES FROM OUR PARTNERS